Location: Newark
(48.7667°N, 7.9833°E)
Time: 18:24:26
(UTC+00:00)

LilacSat-2 - Visible Passes

Search period start: 16 October 2019 00:00
Search period end: 26 October 2019 00:00
Orbit: 513 x 536 km, 97.5° (Epoch: 15 October)

Date Brightness Start Highest point End Pass type
(mag) Time Alt. Az. Time Alt. Az. Time Alt. Az.
16 Oct ? 04:11:21 10° ENE 04:12:38 11° E 04:13:54 10° ESE visible
17 Oct ? 17:54:04 10° W 17:54:43 10° W 17:55:21 10° WNW visible
18 Oct ? 05:19:14 10° NNE 05:22:59 65° E 05:26:43 10° S visible
18 Oct ? 17:40:21 10° WSW 17:42:25 14° W 17:44:29 10° WNW visible
19 Oct ? 05:07:09 10° NNE 05:10:48 46° E 05:14:25 10° S visible
19 Oct ? 17:27:25 10° SW 17:30:08 19° W 17:32:52 10° NW visible
20 Oct ? 04:55:07 10° NNE 04:58:35 34° E 05:02:01 10° SSE visible
20 Oct ? 17:14:43 10° SSW 17:17:53 24° W 17:21:03 10° NW visible
21 Oct ? 04:43:11 10° NE 04:46:21 25° E 04:49:31 10° SSE visible
21 Oct ? 17:02:12 10° SSW 17:05:39 32° W 17:09:07 10° NNW visible
22 Oct ? 04:31:21 10° NE 04:34:06 19° E 04:36:50 10° SE visible
23 Oct ? 04:19:43 10° NE 04:21:49 14° E 04:23:55 10° SE visible
24 Oct ? 04:08:42 10° ENE 04:09:31 11° E 04:10:21 10° E visible
25 Oct ? 05:28:18 10° NNE 05:32:05 83° ESE 05:35:51 10° SSW visible
25 Oct ? 17:50:31 10° WSW 17:51:38 11° W 17:52:43 10° WNW visible
